KAITUO 1B
1 40912U 15049P   17363.07158586  .00001804  00000-0  91029-4 0  9993
2 40912  97.4510   7.8600 0013772 241.2638 163.4186 15.18333280125855
TIANWANG 1C (TW-1C)
1 40926U 15051B   17363.48663604  .00009889  00000-0  20130-3 0  9993
2 40926  97.2071  41.7310 0010797 168.6678 297.1915 15.46404998127061
TIANWANG 1B (TW-1B)
1 40927U 15051C   17363.39069444  .00009624  00000-0  20398-3 0  9999
2 40927  97.2157  41.5583 0010006 180.4463   6.4758 15.45234747126971
TIANWANG 1A (TW-1A)
1 40928U 15051D   17363.14856063  .00004027  00000-0  11081-3 0  9995
2 40928  97.2062  35.4141 0010954 208.4325 196.3320 15.37689018126643
LAPAN A2
1 40931U 15052B   17363.11515787  .00000666  00000-0  37516-5 0  9990
2 40931   5.9997 282.8445 0012257 119.8561 240.2793 14.76560369121827
LQSAT
1 40958U 15057A   17363.41166059  .00000046  00000-0  14942-4 0  9990
2 40958  97.9597  75.1281 0018611 156.6828 203.5228 14.73009465119856
CHUBUSAT 2
1 41338U 16012B   17363.21905519  .00000365  00000-0  21874-4 0  9991
2 41338  31.0043 313.4637 0013979 190.5369 169.4974 14.99896714102293
CHUBUSAT 3
1 41339U 16012C   17363.25436991  .00000371  00000-0  22203-4 0  9993
2 41339  31.0106 312.0818 0013846 197.7036 162.3128 15.00090116102280
OUFTI-1
1 41458U 16025C   17363.09647569  .00001972  00000-0  10749-3 0  9995
2 41458  98.1594  51.7030 0171248 358.1605   1.8987 15.04097718 91866
E-STAR-2
1 41459U 16025D   17363.14199099  .00002100  00000-0  11455-3 0  9991
2 41459  98.1628  51.6548 0172044 358.6029   1.4707 15.03879421 91862
AAUSAT 4
1 41460U 16025E   17363.13734290  .00002878  00000-0  15422-3 0  9990
2 41460  98.1558  51.9153 0163839 355.8380   4.1481 15.05102659 91900
NUSAT 1
1 41557U 16033B   17363.17327862  .00001513  00000-0  58233-4 0  9996
2 41557  97.4499  82.6374 0014988  44.0003 316.2426 15.27868721 88194
BEESAT 4
1 41619U 16040W   17363.16845455  .00001652  00000-0  76150-4 0  9997
2 41619  97.4390  63.5064 0013389 104.8775 255.3945 15.21613318 72233
PRATHAM
1 41783U 16059A   17363.16880794  .00000061  00000-0  21381-4 0  9993
2 41783  98.1428  62.2626 0032334 269.1948  90.5549 14.62890603 67100
ALSAT 1N
1 41789U 16059G   17363.06369666  .00000117  00000-0  31460-4 0  9999
2 41789  98.1432  63.0411 0026904 262.7903  97.0245 14.64114863 67124
NAYIF 1
1 42017U 17008BX  17363.45192503  .00001686  00000-0  72810-4 0  9992
2 42017  97.4722  64.3688 0004988 251.3659 108.7036 15.23893977 48216
LILACSAT-1
1 42725U 98067ME  17363.18928255  .00018820  00000-0  21477-3 0  9993
2 42725  51.6366 140.2062 0004850 310.8567  49.2007 15.62240746 33882
MAX VALIER SAT
1 42778U 17036P   17363.13122400  .00001152  00000-0  55103-4 0  9995
2 42778  97.4280  60.4788 0011415 309.6392  50.3835 15.20942177 28650
